Theta_e
327 327 331 336 334 330 350 350 355 356 352 348 345 349 342 344 346 347 346 345 346 348 346 350 348 349 353 352 350 350 350 353
327 327 327 329 329 339 346 356 356 359 352 353 350 349 348 344 346 347 348 347 346 348 347 348 348 347 354 351 352 349 349 352
327 327 326 324 324 325 334 343 353 353 357 350 349 351 351 349 344 345 348 345 345 348 347 347 348 347 353 354 352 351 352 351
324 326 325 325 325 323 323 326 339 345 346 347 346 350 349 350 348 344 347 345 342 346 348 345 344 349 356 355 352 352 353 351
326 329 330 330 328 325 322 320 324 331 348 347 348 343 339 346 350 347 344 346 345 346 348 349 351 352 354 353 355 353 354 351
328 331 330 333 330 330 329 321 324 324 349 345 344 347 346 349 349 348 347 345 348 348 348 349 349 352 349 352 352 351 352 350
324 327 328 329 330 330 331 341 333 336 344 349 350 351 347 353 349 350 350 348 350 350 346 347 348 350 348 345 341 346 341 340
330 329 331 330 333 332 339 341 342 341 354 349 349 342 344 343 355 351 353 353 354 347 345 344 344 343 348 353 347 349 344 348
330 330 331 335 333 333 336 339 340 353 348 339 340 341 339 342 354 354 349 350 351 352 349 344 344 345 350 350 349 346 345 345
330 330 332 335 330 331 335 337 342 345 349 338 336 333 334 342 350 349 346 342 339 339 345 351 351 350 348 348 347 347 349 348
334 336 333 333 332 332 332 340 336 345 344 343 344 346 347 345 343 340 336 332 331 332 335 344 350 349 349 348 349 348 346 344
329 333 336 333 331 329 329 343 337 341 338 336 340 344 348 339 335 332 330 329 327 328 330 335 338 345 345 342 344 343 344 343
328 334 336 333 330 329 334 340 334 340 339 337 337 343 336 331 329 327 325 324 324 324 324 328 332 337 334 334 333 335 339 339
331 332 336 330 332 332 331 332 333 341 339 339 339 336 332 327 325 324 324 322 321 321 321 323 327 331 327 327 328 331 333 334
331 330 331 330 330 326 327 330 329 337 337 333 337 334 331 327 324 322 321 321 321 321 320 320 321 323 323 323 325 328 329 331
330 330 331 328 328 327 327 328 330 335 335 335 334 331 328 325 323 320 319 320 321 320 320 320 320 319 319 321 322 323 324 325
325 329 329 329 326 325 327 327 329 333 336 335 331 328 326 325 324 323 321 320 320 320 319 319 319 320 319 318 318 320 321 321
333 332 331 330 327 325 325 325 327 334 334 332 330 328 326 324 322 322 322 322 321 319 318 318 318 318 319 320 319 321 321 319
332 329 331 328 326 324 323 325 325 333 332 330 329 325 321 320 320 319 319 320 319 319 318 317 317 317 317 318 320 320 318 319
Wind_Speed
9 8 8 4 6 8 7 2 3 1 2 11 14 13 19 20 19 18 16 12 14 13 24 20 33 31 29 30 29 27 23 19
11 5 7 3 5 2 3 5 3 5 7 5 9 7 15 23 19 16 6 9 13 16 25 27 27 29 30 32 33 29 23 21
6 5 6 3 4 4 4 5 4 4 4 12 18 16 10 12 19 20 13 12 11 14 19 30 30 34 32 34 32 30 26 25
9 6 9 7 5 6 3 8 2 4 4 12 17 15 15 9 17 19 18 16 16 20 24 25 27 26 33 33 32 32 28 26
9 8 7 4 6 4 4 2 6 2 5 10 11 8 13 12 15 14 15 14 11 13 16 13 14 16 33 35 32 28 26 29
2 2 4 6 9 11 6 2 5 6 5 10 6 7 4 8 15 19 17 15 12 11 16 23 19 18 22 33 25 24 20 18
9 3 3 8 8 9 11 17 4 2 9 10 6 6 3 6 6 9 14 13 18 16 18 27 30 26 23 20 18 22 22 9
8 11 11 10 14 13 15 22 17 7 8 5 5 7 13 10 13 3 6 10 15 15 20 21 24 18 28 21 23 20 16 23
4 8 8 7 15 17 12 16 6 8 6 3 4 6 4 9 17 15 10 9 8 12 15 13 20 16 21 27 29 26 23 18
1 6 1 3 14 15 16 13 12 13 13 5 7 6 6 9 12 9 8 9 9 12 9 24 22 17 21 22 20 18 18 12
3 3 4 1 7 11 6 7 13 7 4 6 3 9 13 14 15 14 12 11 11 12 14 14 21 22 21 20 20 19 16 14
4 1 4 1 7 7 5 3 10 7 3 6 3 4 2 9 13 12 16 15 11 10 14 22 20 26 28 24 22 20 18 14
5 2 2 2 5 5 5 4 3 6 5 4 3 3 7 10 14 16 13 14 10 12 14 14 17 20 22 19 18 15 15 13
2 4 2 1 4 4 4 4 2 7 6 7 7 9 10 9 9 12 13 14 9 15 15 12 12 17 20 20 17 17 17 15
5 5 5 7 4 5 4 4 7 6 7 5 6 8 9 6 10 12 14 13 10 13 16 16 14 17 20 16 16 19 21 22
5 2 5 4 7 7 6 6 5 10 8 8 9 8 9 10 7 11 12 10 12 13 14 15 18 20 20 16 15 18 19 20
3 10 10 8 7 6 6 5 7 12 11 11 10 7 8 9 9 11 14 14 10 12 12 17 19 18 17 16 15 14 13 14
2 5 6 5 6 2 4 5 6 12 11 12 13 8 10 8 11 13 12 15 16 15 16 15 15 14 13 14 14 16 14 14
3 6 7 7 5 2 4 6 7 11 17 12 15 17 13 13 14 16 16 17 17 14 15 14 13 12 10 8 8 8 10 14
Wind_Direction
194 211 156 209 220 215 99 71 96 124 344 300 20 175 197 207 216 207 194 183 168 180 194 187 166 172 179 183 186 181 180 189
202 145 286 182 272 56 36 142 200 133 146 264 304 202 186 200 207 209 147 158 162 167 188 198 179 173 180 190 185 186 178 192
126 130 213 284 293 302 146 138 144 162 178 206 222 190 190 214 214 200 182 188 172 163 200 198 184 175 181 184 183 184 182 188
290 261 192 216 225 210 132 289 154 133 239 185 199 202 174 205 204 203 187 190 175 172 189 199 185 173 177 175 180 185 187 191
336 359 5 11 332 316 288 272 276 171 251 171 194 230 201 202 186 190 182 190 188 163 150 141 157 166 180 179 178 182 190 192
248 321 300 310 335 340 4 306 256 246 170 178 201 246 300 281 201 177 181 178 177 166 151 147 138 167 181 172 174 180 180 185
309 253 304 313 325 309 20 2 311 273 151 130 149 151 168 45 164 169 169 178 160 154 157 158 158 171 168 190 209 185 204 225
306 7 3 358 15 23 38 19 353 27 66 41 267 106 64 44 17 59 102 109 131 145 158 166 186 198 163 163 181 185 169 203
306 28 353 60 15 21 57 39 13 12 340 2 59 40 76 99 84 4 41 56 96 127 135 190 195 189 161 172 174 175 169 177
235 36 224 234 24 31 62 34 41 51 18 36 12 27 7 24 86 119 91 62 35 38 94 176 163 163 147 153 160 150 150 157
105 93 317 128 28 18 14 2 10 43 63 6 1 63 35 62 68 73 61 58 55 55 57 96 151 169 150 149 149 141 138 132
341 144 197 339 12 356 302 28 13 93 242 327 354 69 72 67 63 63 70 63 48 54 53 94 104 133 132 130 130 121 130 139
316 97 91 347 285 279 123 176 291 148 208 271 356 22 95 77 79 79 73 74 85 87 76 89 114 131 119 122 113 123 135 143
15 37 340 253 333 79 231 275 115 119 113 98 98 89 95 90 85 79 79 73 73 88 84 90 114 124 116 113 118 124 132 133
150 210 227 187 191 221 51 36 346 104 127 98 129 118 108 90 78 78 74 75 89 90 91 99 105 117 108 118 128 129 123 113
126 174 321 205 120 93 64 29 21 80 137 149 117 115 100 96 110 107 109 110 110 108 104 101 112 112 111 116 117 117 117 114
25 171 205 76 78 52 100 80 50 69 105 108 116 124 130 125 129 141 142 136 128 123 120 123 128 126 127 125 124 114 105 107
152 137 118 138 116 360 53 77 87 110 105 115 130 131 124 110 113 132 143 157 142 139 132 134 134 137 144 146 148 144 146 140
110 86 116 140 104 121 339 59 65 125 131 133 131 136 127 122 134 136 129 130 126 130 136 134 140 142 146 151 169 179 165 161